Time,TemperatureF,DewpointF,PressureIn,WindDirection,WindDirectionDegrees,WindSpeedMPH,WindSpeedGustMPH,Humidity,HourlyPrecipIn,Conditions,Clouds,dailyrainin,SoftwareType,DateUTC
2013-02-28 00:00:00,30.0,26.1,29.50,ENE,68,2.0,3.0,85,0.00,,,0.00,Weather View 32 v70,2013-02-28 09:00:00,
2013-02-28 00:05:00,29.7,25.7,29.51,ENE,68,2.0,3.0,85,0.00,,,0.00,Weather View 32 v70,2013-02-28 09:05:00,
2013-02-28 00:10:00,29.7,25.7,29.51,ENE,68,2.0,3.0,85,0.00,,,0.00,Weather View 32 v70,2013-02-28 09:10:00,
2013-02-28 00:15:00,29.7,25.7,29.51,ENE,68,3.0,3.0,85,0.00,,,0.00,Weather View 32 v70,2013-02-28 09:15:00,
2013-02-28 00:20:00,29.7,25.7,29.51,ENE,68,2.0,3.0,85,0.00,,,0.00,Weather View 32 v70,2013-02-28 09:20:00,
2013-02-28 00:25:00,29.7,25.7,29.51,ENE,68,2.0,3.0,85,0.00,,,0.00,Weather View 32 v70,2013-02-28 09:25:00,
2013-02-28 00:30:00,29.3,25.4,29.51,ENE,68,2.0,3.0,85,0.00,,,0.00,Weather View 32 v70,2013-02-28 09:30:00,
2013-02-28 00:35:00,29.3,25.4,29.51,ENE,68,2.0,3.0,85,0.00,,,0.00,Weather View 32 v70,2013-02-28 09:35:00,
2013-02-28 00:40:00,29.3,25.4,29.51,ENE,68,3.0,3.0,85,0.00,,,0.00,Weather View 32 v70,2013-02-28 09:40:00,
2013-02-28 00:45:00,29.3,25.4,29.51,NNE,22,3.0,3.0,85,0.00,,,0.00,Weather View 32 v70,2013-02-28 09:45:00,
2013-02-28 00:50:00,29.3,25.4,29.51,NNE,22,2.0,3.0,85,0.00,,,0.00,Weather View 32 v70,2013-02-28 09:50:00,
2013-02-28 00:55:00,29.3,25.6,29.51,NNE,22,2.0,3.0,86,0.00,,,0.00,Weather View 32 v70,2013-02-28 09:55:00,
2013-02-28 01:00:00,29.1,25.2,29.51,NNE,22,2.0,3.0,85,0.00,,,0.00,Weather View 32 v70,2013-02-28 10:00:00,
2013-02-28 01:05:00,28.9,25.0,29.51,NNE,22,1.0,3.0,85,0.00,,,0.00,Weather View 32 v70,2013-02-28 10:05:00,
2013-02-28 01:10:00,28.9,25.0,29.51,NNE,22,1.0,3.0,85,0.00,,,0.00,Weather View 32 v70,2013-02-28 10:10:00,
2013-02-28 01:15:00,28.4,24.5,29.51,NNE,22,1.0,3.0,85,0.00,,,0.00,Weather View 32 v70,2013-02-28 10:15:00,
2013-02-28 01:20:00,28.2,24.3,29.51,NNE,22,0.0,3.0,85,0.00,,,0.00,Weather View 32 v70,2013-02-28 10:20:00,
2013-02-28 01:25:00,27.9,23.9,29.51,NNE,22,1.0,3.0,85,0.00,,,0.00,Weather View 32 v70,2013-02-28 10:25:00,
2013-02-28 01:30:00,27.7,23.8,29.51,NNE,22,1.0,3.0,85,0.00,,,0.00,Weather View 32 v70,2013-02-28 10:30:00,
2013-02-28 01:35:00,27.5,23.9,29.51,NNE,22,1.0,3.0,86,0.00,,,0.00,Weather View 32 v70,2013-02-28 10:35:00,
2013-02-28 01:40:00,27.5,23.9,29.51,NNE,22,2.0,3.0,86,0.00,,,0.00,Weather View 32 v70,2013-02-28 10:40:00,
2013-02-28 01:45:00,27.5,23.9,29.52,NNE,22,2.0,3.0,86,0.00,,,0.00,Weather View 32 v70,2013-02-28 10:45:00,
2013-02-28 01:50:00,27.3,23.7,29.52,NNE,22,2.0,2.0,86,0.00,,,0.00,Weather View 32 v70,2013-02-28 10:50:00,
2013-02-28 01:55:00,27.5,23.9,29.52,NNE,22,2.0,2.0,86,0.00,,,0.00,Weather View 32 v70,2013-02-28 10:55:00,
2013-02-28 02:00:00,27.5,23.9,29.52,NNE,22,2.0,2.0,86,0.00,,,0.00,Weather View 32 v70,2013-02-28 11:00:00,
2013-02-28 02:05:00,27.5,23.9,29.52,NNE,22,2.0,2.0,86,0.00,,,0.00,Weather View 32 v70,2013-02-28 11:05:00,
2013-02-28 02:10:00,27.5,23.9,29.52,NNE,22,2.0,2.0,86,0.00,,,0.00,Weather View 32 v70,2013-02-28 11:10:00,
2013-02-28 02:15:00,27.5,23.9,29.52,NNE,22,2.0,2.0,86,0.00,,,0.00,Weather View 32 v70,2013-02-28 11:15:00,
2013-02-28 02:20:00,27.5,23.9,29.52,NNE,22,1.0,2.0,86,0.00,,,0.00,Weather View 32 v70,2013-02-28 11:20:00,
2013-02-28 02:25:00,27.1,23.2,29.52,NNE,22,1.0,2.0,85,0.00,,,0.00,Weather View 32 v70,2013-02-28 11:25:00,
2013-02-28 02:30:00,27.1,23.5,29.52,NNE,22,1.0,2.0,86,0.00,,,0.00,Weather View 32 v70,2013-02-28 11:30:00,
2013-02-28 02:35:00,27.5,23.9,29.52,NNE,22,2.0,2.0,86,0.00,,,0.00,Weather View 32 v70,2013-02-28 11:35:00,
2013-02-28 02:40:00,27.1,23.5,29.52,NNE,22,2.0,2.0,86,0.00,,,0.00,Weather View 32 v70,2013-02-28 11:40:00,
2013-02-28 02:45:00,27.1,23.5,29.51,NNE,22,2.0,2.0,86,0.00,,,0.00,Weather View 32 v70,2013-02-28 11:45:00,
2013-02-28 02:50:00,27.1,23.5,29.51,NNE,22,2.0,2.0,86,0.00,,,0.00,Weather View 32 v70,2013-02-28 11:50:00,
2013-02-28 02:55:00,27.0,23.3,29.51,NNE,22,2.0,2.0,86,0.00,,,0.00,Weather View 32 v70,2013-02-28 11:55:00,
2013-02-28 03:00:00,27.1,23.5,29.51,NNE,22,2.0,2.0,86,0.00,,,0.00,Weather View 32 v70,2013-02-28 12:00:00,
2013-02-28 03:05:00,26.8,23.2,29.52,NNE,22,2.0,2.0,86,0.00,,,0.00,Weather View 32 v70,2013-02-28 12:05:00,
2013-02-28 03:10:00,26.8,23.2,29.52,NNE,22,2.0,2.0,86,0.00,,,0.00,Weather View 32 v70,2013-02-28 12:10:00,
2013-02-28 03:15:00,27.0,23.1,29.52,ENE,68,2.0,2.0,85,0.00,,,0.00,Weather View 32 v70,2013-02-28 12:15:00,
2013-02-28 03:20:00,27.0,23.1,29.52,ENE,68,2.0,2.0,85,0.00,,,0.00,Weather View 32 v70,2013-02-28 12:20:00,
2013-02-28 03:25:00,27.1,23.2,29.53,ENE,68,2.0,2.0,85,0.00,,,0.00,Weather View 32 v70,2013-02-28 12:25:00,
2013-02-28 03:30:00,27.1,22.9,29.53,NE,45,2.0,2.0,84,0.00,,,0.00,Weather View 32 v70,2013-02-28 12:30:00,
2013-02-28 03:35:00,27.1,22.9,29.53,NE,45,1.0,2.0,84,0.00,,,0.00,Weather View 32 v70,2013-02-28 12:35:00,
2013-02-28 03:40:00,27.1,22.7,29.53,NE,45,1.0,2.0,83,0.00,,,0.00,Weather View 32 v70,2013-02-28 12:40:00,
2013-02-28 03:45:00,27.1,22.7,29.52,NE,45,1.0,2.0,83,0.00,,,0.00,Weather View 32 v70,2013-02-28 12:45:00,
2013-02-28 03:50:00,27.0,22.5,29.52,NE,45,1.0,2.0,83,0.00,,,0.00,Weather View 32 v70,2013-02-28 12:50:00,
2013-02-28 03:55:00,27.1,22.7,29.52,NE,45,1.0,2.0,83,0.00,,,0.00,Weather View 32 v70,2013-02-28 12:55:00,
2013-02-28 04:00:00,27.1,22.7,29.52,NE,45,1.0,2.0,83,0.00,,,0.00,Weather View 32 v70,2013-02-28 13:00:00,
2013-02-28 04:05:00,27.0,22.2,29.53,NE,45,1.0,2.0,82,0.00,,,0.00,Weather View 32 v70,2013-02-28 13:05:00,
2013-02-28 04:10:00,27.0,22.2,29.53,NE,45,1.0,2.0,82,0.00,,,0.00,Weather View 32 v70,2013-02-28 13:10:00,
2013-02-28 04:15:00,26.8,22.3,29.53,NE,45,1.0,2.0,83,0.00,,,0.00,Weather View 32 v70,2013-02-28 13:15:00,
2013-02-28 04:20:00,27.0,22.2,29.53,NE,45,1.0,2.0,82,0.00,,,0.00,Weather View 32 v70,2013-02-28 13:20:00,
2013-02-28 04:25:00,27.0,22.2,29.54,NE,45,2.0,2.0,82,0.00,,,0.00,Weather View 32 v70,2013-02-28 13:25:00,
2013-02-28 04:30:00,27.1,22.7,29.54,NE,45,2.0,2.0,83,0.00,,,0.00,Weather View 32 v70,2013-02-28 13:30:00,
2013-02-28 04:35:00,26.8,22.3,29.54,NE,45,2.0,2.0,83,0.00,,,0.00,Weather View 32 v70,2013-02-28 13:35:00,
2013-02-28 04:40:00,27.0,22.5,29.54,NE,45,1.0,2.0,83,0.00,,,0.00,Weather View 32 v70,2013-02-28 13:40:00,
2013-02-28 04:45:00,27.1,22.4,29.54,NE,45,1.0,2.0,82,0.00,,,0.00,Weather View 32 v70,2013-02-28 13:45:00,
2013-02-28 04:50:00,27.1,22.4,29.54,NE,45,2.0,2.0,82,0.00,,,0.00,Weather View 32 v70,2013-02-28 13:50:00,
2013-02-28 04:55:00,27.5,22.7,29.54,NE,45,2.0,2.0,82,0.00,,,0.00,Weather View 32 v70,2013-02-28 13:55:00,
2013-02-28 05:00:00,27.3,22.6,29.54,NE,45,2.0,2.0,82,0.00,,,0.00,Weather View 32 v70,2013-02-28 14:00:00,
2013-02-28 05:05:00,27.5,22.7,29.55,NE,45,2.0,2.0,82,0.00,,,0.00,Weather View 32 v70,2013-02-28 14:05:00,
2013-02-28 05:10:00,27.5,22.7,29.55,NE,45,2.0,2.0,82,0.00,,,0.00,Weather View 32 v70,2013-02-28 14:10:00,
2013-02-28 05:15:00,27.9,22.8,29.55,NE,45,2.0,2.0,81,0.00,,,0.00,Weather View 32 v70,2013-02-28 14:15:00,
2013-02-28 05:20:00,27.9,22.8,29.55,NE,45,2.0,2.0,81,0.00,,,0.00,Weather View 32 v70,2013-02-28 14:20:00,
2013-02-28 05:25:00,27.7,22.6,29.55,NE,45,2.0,2.0,81,0.00,,,0.00,Weather View 32 v70,2013-02-28 14:25:00,
2013-02-28 05:30:00,27.9,22.8,29.55,NE,45,2.0,2.0,81,0.00,,,0.00,Weather View 32 v70,2013-02-28 14:30:00,
2013-02-28 05:35:00,27.9,22.8,29.55,NE,45,2.0,2.0,81,0.00,,,0.00,Weather View 32 v70,2013-02-28 14:35:00,
2013-02-28 05:40:00,27.7,22.6,29.55,North,0,2.0,2.0,81,0.00,,,0.00,Weather View 32 v70,2013-02-28 14:40:00,
2013-02-28 05:45:00,27.9,22.8,29.56,North,0,2.0,2.0,81,0.00,,,0.00,Weather View 32 v70,2013-02-28 14:45:00,
2013-02-28 05:50:00,27.9,22.8,29.56,North,0,2.0,2.0,81,0.00,,,0.00,Weather View 32 v70,2013-02-28 14:50:00,
2013-02-28 05:55:00,27.9,22.8,29.56,North,0,2.0,2.0,81,0.00,,,0.00,Weather View 32 v70,2013-02-28 14:55:00,
2013-02-28 06:00:00,27.9,22.8,29.56,North,0,2.0,2.0,81,0.00,,,0.00,Weather View 32 v70,2013-02-28 15:00:00,
2013-02-28 06:05:00,27.9,23.1,29.56,North,0,2.0,2.0,82,0.00,,,0.00,Weather View 32 v70,2013-02-28 15:05:00,
2013-02-28 06:10:00,27.9,23.1,29.56,North,0,2.0,2.0,82,0.00,,,0.00,Weather View 32 v70,2013-02-28 15:10:00,
2013-02-28 06:15:00,27.9,23.1,29.56,NE,45,3.0,3.0,82,0.00,,,0.00,Weather View 32 v70,2013-02-28 15:15:00,
2013-02-28 06:20:00,27.9,23.1,29.56,North,0,3.0,3.0,82,0.00,,,0.00,Weather View 32 v70,2013-02-28 15:20:00,
2013-02-28 06:25:00,27.9,23.1,29.56,NE,45,3.0,3.0,82,0.00,,,0.00,Weather View 32 v70,2013-02-28 15:25:00,
2013-02-28 06:30:00,27.9,23.1,29.56,SE,135,3.0,3.0,82,0.00,,,0.00,Weather View 32 v70,2013-02-28 15:30:00,
2013-02-28 06:35:00,27.9,23.1,29.56,SE,135,3.0,3.0,82,0.00,,,0.00,Weather View 32 v70,2013-02-28 15:35:00,
2013-02-28 06:40:00,27.7,22.9,29.56,SE,135,3.0,3.0,82,0.00,,,0.00,Weather View 32 v70,2013-02-28 15:40:00,
2013-02-28 06:45:00,27.7,22.9,29.57,SE,135,2.0,3.0,82,0.00,,,0.00,Weather View 32 v70,2013-02-28 15:45:00,
2013-02-28 06:50:00,27.7,22.9,29.57,SE,135,2.0,3.0,82,0.00,,,0.00,Weather View 32 v70,2013-02-28 15:50:00,
2013-02-28 06:55:00,27.9,23.4,29.57,SE,135,2.0,3.0,83,0.00,,,0.00,Weather View 32 v70,2013-02-28 15:55:00,
2013-02-28 07:00:00,27.5,23.0,29.57,SE,135,3.0,3.0,83,0.00,,,0.00,Weather View 32 v70,2013-02-28 16:00:00,
2013-02-28 07:05:00,27.5,23.0,29.58,SE,135,2.0,3.0,83,0.00,,,0.00,Weather View 32 v70,2013-02-28 16:05:00,
2013-02-28 07:10:00,27.5,23.0,29.58,SE,135,2.0,3.0,83,0.00,,,0.00,Weather View 32 v70,2013-02-28 16:10:00,
2013-02-28 07:15:00,27.5,23.0,29.58,SE,135,2.0,3.0,83,0.00,,,0.00,Weather View 32 v70,2013-02-28 16:15:00,
2013-02-28 07:20:00,27.5,23.0,29.58,SE,135,2.0,3.0,83,0.00,,,0.00,Weather View 32 v70,2013-02-28 16:20:00,
2013-02-28 07:25:00,27.5,23.0,29.58,SE,135,2.0,3.0,83,0.00,,,0.00,Weather View 32 v70,2013-02-28 16:25:00,
2013-02-28 07:30:00,27.5,23.0,29.58,SE,135,2.0,3.0,83,0.00,,,0.00,Weather View 32 v70,2013-02-28 16:30:00,
2013-02-28 07:35:00,27.5,23.3,29.58,SE,135,2.0,3.0,84,0.00,,,0.00,Weather View 32 v70,2013-02-28 16:35:00,
2013-02-28 07:40:00,27.5,23.3,29.58,SE,135,1.0,3.0,84,0.00,,,0.00,Weather View 32 v70,2013-02-28 16:40:00,
2013-02-28 07:45:00,27.5,23.3,29.58,SE,135,1.0,3.0,84,0.00,,,0.00,Weather View 32 v70,2013-02-28 16:45:00,
2013-02-28 07:50:00,27.5,23.3,29.58,SE,135,2.0,3.0,84,0.00,,,0.00,Weather View 32 v70,2013-02-28 16:50:00,
2013-02-28 07:55:00,27.5,23.3,29.58,SE,135,1.0,3.0,84,0.00,,,0.00,Weather View 32 v70,2013-02-28 16:55:00,
2013-02-28 08:00:00,27.5,23.3,29.58,SE,135,1.0,3.0,84,0.00,,,0.00,Weather View 32 v70,2013-02-28 17:00:00,
2013-02-28 08:05:00,27.5,23.3,29.58,SE,135,1.0,2.0,84,0.00,,,0.00,Weather View 32 v70,2013-02-28 17:05:00,
2013-02-28 08:10:00,27.3,23.1,29.58,SE,135,1.0,2.0,84,0.00,,,0.00,Weather View 32 v70,2013-02-28 17:10:00,
2013-02-28 08:15:00,27.3,23.1,29.58,SE,135,1.0,2.0,84,0.00,,,0.00,Weather View 32 v70,2013-02-28 17:15:00,
2013-02-28 08:20:00,27.5,23.3,29.58,SE,135,2.0,2.0,84,0.00,,,0.00,Weather View 32 v70,2013-02-28 17:20:00,
2013-02-28 08:25:00,27.5,23.3,29.62,SE,135,1.0,2.0,84,0.00,,,0.00,Weather View 32 v70,2013-02-28 17:25:00,
2013-02-28 08:30:00,27.5,23.6,29.62,SE,135,1.0,2.0,85,0.00,,,0.00,Weather View 32 v70,2013-02-28 17:30:00,
2013-02-28 08:35:00,27.5,23.6,29.62,SE,135,1.0,2.0,85,0.00,,,0.00,Weather View 32 v70,2013-02-28 17:35:00,
2013-02-28 08:40:00,27.5,23.6,29.62,SE,135,2.0,2.0,85,0.00,,,0.00,Weather View 32 v70,2013-02-28 17:40:00,
2013-02-28 08:45:00,27.5,23.6,29.63,SE,135,2.0,2.0,85,0.00,,,0.00,Weather View 32 v70,2013-02-28 17:45:00,
2013-02-28 08:50:00,27.5,23.6,29.63,SE,135,2.0,2.0,85,0.00,,,0.00,Weather View 32 v70,2013-02-28 17:50:00,
2013-02-28 08:55:00,27.9,23.9,29.63,SE,135,1.0,2.0,85,0.00,,,0.00,Weather View 32 v70,2013-02-28 17:55:00,
2013-02-28 09:00:00,27.7,23.8,29.63,SE,135,1.0,2.0,85,0.00,,,0.00,Weather View 32 v70,2013-02-28 18:00:00,
2013-02-28 09:05:00,27.9,23.9,29.63,SE,135,1.0,2.0,85,0.00,,,0.00,Weather View 32 v70,2013-02-28 18:05:00,
2013-02-28 09:10:00,27.9,23.9,29.63,SE,135,1.0,2.0,85,0.00,,,0.00,Weather View 32 v70,2013-02-28 18:10:00,
2013-02-28 09:15:00,27.9,23.9,29.63,SE,135,1.0,2.0,85,0.00,,,0.00,Weather View 32 v70,2013-02-28 18:15:00,
2013-02-28 09:20:00,28.2,24.3,29.63,SE,135,1.0,2.0,85,0.00,,,0.00,Weather View 32 v70,2013-02-28 18:20:00,
2013-02-28 09:25:00,28.2,24.3,29.64,SE,135,0.0,2.0,85,0.00,,,0.00,Weather View 32 v70,2013-02-28 18:25:00,
2013-02-28 09:30:00,28.4,24.5,29.64,SE,135,0.0,2.0,85,0.00,,,0.00,Weather View 32 v70,2013-02-28 18:30:00,
2013-02-28 09:35:00,28.4,24.5,29.64,SE,135,0.0,2.0,85,0.00,,,0.00,Weather View 32 v70,2013-02-28 18:35:00,
2013-02-28 09:40:00,28.6,24.6,29.64,SE,135,0.0,2.0,85,0.00,,,0.00,Weather View 32 v70,2013-02-28 18:40:00,
2013-02-28 09:45:00,28.9,24.7,29.63,SE,135,0.0,2.0,84,0.00,,,0.00,Weather View 32 v70,2013-02-28 18:45:00,
2013-02-28 09:50:00,28.9,24.7,29.63,SE,135,0.0,2.0,84,0.00,,,0.00,Weather View 32 v70,2013-02-28 18:50:00,
2013-02-28 09:55:00,28.9,24.7,29.63,SE,135,1.0,1.0,84,0.00,,,0.00,Weather View 32 v70,2013-02-28 18:55:00,
2013-02-28 10:00:00,29.3,25.1,29.63,SE,135,1.0,1.0,84,0.00,,,0.00,Weather View 32 v70,2013-02-28 19:00:00,
2013-02-28 10:05:00,29.3,25.1,29.65,SE,135,2.0,2.0,84,0.00,,,0.00,Weather View 32 v70,2013-02-28 19:05:00,
2013-02-28 10:10:00,29.7,25.4,29.65,SE,135,1.0,2.0,84,0.00,,,0.00,Weather View 32 v70,2013-02-28 19:10:00,
2013-02-28 10:15:00,29.7,25.4,29.65,SE,135,1.0,2.0,84,0.00,,,0.00,Weather View 32 v70,2013-02-28 19:15:00,
2013-02-28 10:20:00,29.8,25.3,29.65,SE,135,1.0,2.0,83,0.00,,,0.00,Weather View 32 v70,2013-02-28 19:20:00,
2013-02-28 10:25:00,29.8,25.3,29.63,SE,135,2.0,2.0,83,0.00,,,0.00,Weather View 32 v70,2013-02-28 19:25:00,
2013-02-28 10:31:00,30.0,25.5,29.63,SE,135,2.0,2.0,83,0.00,,,0.00,Weather View 32 v70,2013-02-28 19:31:00,
2013-02-28 10:36:00,30.4,25.8,29.63,SE,135,1.0,2.0,83,0.00,,,0.00,Weather View 32 v70,2013-02-28 19:36:00,
2013-02-28 10:41:00,30.4,25.8,29.63,SE,135,1.0,2.0,83,0.00,,,0.00,Weather View 32 v70,2013-02-28 19:41:00,
2013-02-28 10:46:00,30.7,26.2,29.65,SE,135,2.0,2.0,83,0.00,,,0.00,Weather View 32 v70,2013-02-28 19:46:00,
2013-02-28 10:51:00,31.1,26.5,29.65,SE,135,2.0,2.0,83,0.00,,,0.00,Weather View 32 v70,2013-02-28 19:51:00,
2013-02-28 10:56:00,31.1,26.2,29.65,SE,135,2.0,2.0,82,0.00,,,0.00,Weather View 32 v70,2013-02-28 19:56:00,
2013-02-28 11:01:00,31.3,26.4,29.65,SE,135,2.0,2.0,82,0.00,,,0.00,Weather View 32 v70,2013-02-28 20:01:00,
2013-02-28 11:06:00,31.8,27.0,29.65,SE,135,2.0,2.0,82,0.00,,,0.00,Weather View 32 v70,2013-02-28 20:06:00,
2013-02-28 11:11:00,32.2,27.0,29.65,SE,135,2.0,2.0,81,0.00,,,0.00,Weather View 32 v70,2013-02-28 20:11:00,
2013-02-28 11:16:00,32.4,27.2,29.65,SE,135,3.0,3.0,81,0.00,,,0.00,Weather View 32 v70,2013-02-28 20:16:00,
2013-02-28 11:21:00,32.9,27.7,29.65,SE,135,3.0,3.0,81,0.00,,,0.00,Weather View 32 v70,2013-02-28 20:21:00,
2013-02-28 11:26:00,32.7,27.2,29.64,SE,135,2.0,3.0,80,0.00,,,0.00,Weather View 32 v70,2013-02-28 20:26:00,
2013-02-28 11:30:00,33.1,27.6,29.64,SE,135,2.0,3.0,80,0.00,,,0.00,Weather View 32 v70,2013-02-28 20:30:00,
2013-02-28 11:36:00,33.3,27.8,29.64,SE,135,2.0,3.0,80,0.00,,,0.00,Weather View 32 v70,2013-02-28 20:36:00,
2013-02-28 11:41:00,33.4,27.9,29.64,SE,135,2.0,3.0,80,0.00,,,0.00,Weather View 32 v70,2013-02-28 20:41:00,
2013-02-28 11:46:00,34.2,28.3,29.63,SE,135,1.0,3.0,79,0.00,,,0.00,Weather View 32 v70,2013-02-28 20:46:00,
2013-02-28 11:51:00,34.3,28.2,29.63,SE,135,1.0,3.0,78,0.00,,,0.00,Weather View 32 v70,2013-02-28 20:51:00,
2013-02-28 11:56:00,34.9,28.7,29.63,SE,135,1.0,3.0,78,0.00,,,0.00,Weather View 32 v70,2013-02-28 20:56:00,
2013-02-28 12:01:00,36.7,29.8,29.63,SE,135,1.0,3.0,76,0.00,,,0.00,Weather View 32 v70,2013-02-28 21:01:00,
2013-02-28 12:06:00,37.4,30.2,29.63,SE,135,1.0,3.0,75,0.00,,,0.00,Weather View 32 v70,2013-02-28 21:06:00,
2013-02-28 12:11:00,37.4,30.2,29.63,SE,135,1.0,3.0,75,0.00,,,0.00,Weather View 32 v70,2013-02-28 21:11:00,
2013-02-28 12:16:00,40.8,31.4,29.63,SE,135,1.0,3.0,69,0.00,,,0.00,Weather View 32 v70,2013-02-28 21:16:00,
2013-02-28 12:21:00,39.9,30.2,29.63,SE,135,1.0,3.0,68,0.00,,,0.00,Weather View 32 v70,2013-02-28 21:21:00,
2013-02-28 12:26:00,40.1,30.4,29.62,SE,135,1.0,2.0,68,0.00,,,0.00,Weather View 32 v70,2013-02-28 21:26:00,
2013-02-28 12:31:00,40.3,30.5,29.62,SE,135,0.0,2.0,68,0.00,,,0.00,Weather View 32 v70,2013-02-28 21:31:00,
2013-02-28 12:36:00,39.9,30.2,29.62,SE,135,1.0,2.0,68,0.00,,,0.00,Weather View 32 v70,2013-02-28 21:36:00,
2013-02-28 12:41:00,39.4,29.3,29.62,SE,135,1.0,2.0,67,0.00,,,0.00,Weather View 32 v70,2013-02-28 21:41:00,
2013-02-28 12:46:00,39.2,29.9,29.62,SE,135,1.0,2.0,69,0.00,,,0.00,Weather View 32 v70,2013-02-28 21:46:00,
2013-02-28 12:51:00,39.6,29.9,29.62,SE,135,0.0,2.0,68,0.00,,,0.00,Weather View 32 v70,2013-02-28 21:51:00,
2013-02-28 12:56:00,39.9,29.8,29.62,SE,135,0.0,2.0,67,0.00,,,0.00,Weather View 32 v70,2013-02-28 21:56:00,
2013-02-28 13:01:00,40.5,30.7,29.62,SE,135,0.0,2.0,68,0.00,,,0.00,Weather View 32 v70,2013-02-28 22:01:00,
2013-02-28 13:06:00,40.1,30.0,29.62,SE,135,1.0,2.0,67,0.00,,,0.00,Weather View 32 v70,2013-02-28 22:06:00,
2013-02-28 13:11:00,39.7,29.7,29.62,SE,135,1.0,2.0,67,0.00,,,0.00,Weather View 32 v70,2013-02-28 22:11:00,
2013-02-28 13:16:00,39.0,29.3,29.62,SE,135,1.0,2.0,68,0.00,,,0.00,Weather View 32 v70,2013-02-28 22:16:00,
2013-02-28 13:21:00,39.0,29.3,29.62,SE,135,1.0,2.0,68,0.00,,,0.00,Weather View 32 v70,2013-02-28 22:21:00,
2013-02-28 13:26:00,38.7,29.4,29.61,SE,135,1.0,1.0,69,0.00,,,0.00,Weather View 32 v70,2013-02-28 22:26:00,
2013-02-28 13:31:00,38.7,29.4,29.61,SE,135,2.0,2.0,69,0.00,,,0.00,Weather View 32 v70,2013-02-28 22:31:00,
2013-02-28 13:36:00,38.3,29.0,29.61,SE,135,2.0,2.0,69,0.00,,,0.00,Weather View 32 v70,2013-02-28 22:36:00,
2013-02-28 13:41:00,38.3,29.0,29.61,SE,135,3.0,3.0,69,0.00,,,0.00,Weather View 32 v70,2013-02-28 22:41:00,
2013-02-28 13:46:00,38.3,29.0,29.61,SE,135,3.0,3.0,69,0.00,,,0.00,Weather View 32 v70,2013-02-28 22:46:00,
2013-02-28 13:51:00,38.3,29.4,29.61,SE,135,3.0,3.0,70,0.00,,,0.00,Weather View 32 v70,2013-02-28 22:51:00,
2013-02-28 13:56:00,38.3,29.4,29.61,SE,135,3.0,3.0,70,0.00,,,0.00,Weather View 32 v70,2013-02-28 22:56:00,
2013-02-28 14:01:00,38.3,29.4,29.61,SE,135,3.0,3.0,70,0.00,,,0.00,Weather View 32 v70,2013-02-28 23:01:00,
2013-02-28 14:06:00,38.1,29.5,29.61,ENE,68,3.0,3.0,71,0.00,,,0.00,Weather View 32 v70,2013-02-28 23:06:00,
2013-02-28 14:11:00,38.3,29.7,29.61,ENE,68,3.0,3.0,71,0.00,,,0.00,Weather View 32 v70,2013-02-28 23:11:00,
2013-02-28 14:16:00,38.3,29.7,29.61,ENE,68,3.0,3.0,71,0.00,,,0.00,Weather View 32 v70,2013-02-28 23:16:00,
2013-02-28 14:21:00,38.5,29.5,29.61,ENE,68,3.0,3.0,70,0.00,,,0.00,Weather View 32 v70,2013-02-28 23:21:00,
2013-02-28 14:26:00,38.7,29.7,29.60,ENE,68,3.0,3.0,70,0.00,,,0.00,Weather View 32 v70,2013-02-28 23:26:00,
2013-02-28 14:31:00,38.7,29.7,29.60,NE,45,3.0,3.0,70,0.00,,,0.00,Weather View 32 v70,2013-02-28 23:31:00,
2013-02-28 14:36:00,38.5,29.5,29.60,ENE,68,2.0,3.0,70,0.00,,,0.00,Weather View 32 v70,2013-02-28 23:36:00,
2013-02-28 14:41:00,38.3,29.4,29.60,NE,45,3.0,3.0,70,0.00,,,0.00,Weather View 32 v70,2013-02-28 23:41:00,
2013-02-28 14:46:00,38.7,29.7,29.60,NNE,22,3.0,3.0,70,0.00,,,0.00,Weather View 32 v70,2013-02-28 23:46:00,
2013-02-28 14:51:00,38.5,29.5,29.60,NNE,22,2.0,3.0,70,0.00,,,0.00,Weather View 32 v70,2013-02-28 23:51:00,
2013-02-28 14:56:00,38.5,29.5,29.60,NE,45,2.0,3.0,70,0.00,,,0.00,Weather View 32 v70,2013-02-28 23:56:00,
2013-02-28 15:01:00,38.5,29.5,29.60,NE,45,2.0,3.0,70,0.00,,,0.00,Weather View 32 v70,2013-03-01 00:01:00,
2013-02-28 15:06:00,38.7,29.7,29.60,NE,45,2.0,3.0,70,0.00,,,0.00,Weather View 32 v70,2013-03-01 00:06:00,
2013-02-28 15:11:00,38.7,29.7,29.60,NE,45,2.0,3.0,70,0.00,,,0.00,Weather View 32 v70,2013-03-01 00:11:00,
2013-02-28 15:17:00,38.3,29.4,29.60,NE,45,0.0,3.0,70,0.00,,,0.00,Weather View 32 v70,2013-03-01 00:17:00,
2013-02-28 15:23:00,38.5,29.5,29.60,NE,45,0.0,3.0,70,0.00,,,0.00,Weather View 32 v70,2013-03-01 00:23:00,
2013-02-28 15:28:00,38.3,29.0,29.60,NE,45,0.0,3.0,69,0.00,,,0.00,Weather View 32 v70,2013-03-01 00:28:00,
2013-02-28 15:35:00,38.3,29.0,29.60,NE,45,0.0,3.0,69,0.00,,,0.00,Weather View 32 v70,2013-03-01 00:35:00,
2013-02-28 15:41:00,38.3,29.0,29.60,NE,45,0.0,3.0,69,0.00,,,0.00,Weather View 32 v70,2013-03-01 00:41:00,
2013-02-28 15:50:00,38.3,29.0,29.59,NE,45,0.0,3.0,69,0.00,,,0.00,Weather View 32 v70,2013-03-01 00:50:00,
2013-02-28 15:55:00,38.3,29.0,29.59,NE,45,0.0,2.0,69,0.00,,,0.00,Weather View 32 v70,2013-03-01 00:55:00,
2013-02-28 16:00:00,38.5,28.8,29.59,NE,45,0.0,2.0,68,0.00,,,0.00,Weather View 32 v70,2013-03-01 01:00:00,
2013-02-28 16:10:00,38.8,28.8,29.60,NE,45,0.0,2.0,67,0.00,,,0.00,Weather View 32 v70,2013-03-01 01:10:00,
2013-02-28 16:15:00,38.7,28.6,29.60,NE,45,0.0,2.0,67,0.00,,,0.00,Weather View 32 v70,2013-03-01 01:15:00,
2013-02-28 16:27:00,38.7,28.6,29.60,NE,45,0.0,0.0,67,0.00,,,0.00,Weather View 32 v70,2013-03-01 01:27:00,
2013-02-28 16:32:00,38.8,28.8,29.60,NE,45,0.0,0.0,67,0.00,,,0.00,Weather View 32 v70,2013-03-01 01:32:00,
2013-02-28 16:37:00,39.0,28.6,29.60,NE,45,0.0,0.0,66,0.00,,,0.00,Weather View 32 v70,2013-03-01 01:37:00,
2013-02-28 16:42:00,38.7,28.3,29.60,NE,45,0.0,0.0,66,0.00,,,0.00,Weather View 32 v70,2013-03-01 01:42:00,
2013-02-28 16:50:00,38.3,27.9,29.60,NE,45,0.0,0.0,66,0.00,,,0.00,Weather View 32 v70,2013-03-01 01:50:00,
2013-02-28 16:55:00,37.6,27.2,29.60,NE,45,0.0,0.0,66,0.00,,,0.00,Weather View 32 v70,2013-03-01 01:55:00,
2013-02-28 17:05:00,36.9,26.6,29.61,NE,45,0.0,0.0,66,0.00,,,0.00,Weather View 32 v70,2013-03-01 02:05:00,
2013-02-28 17:15:00,36.3,26.4,29.61,NE,45,0.0,0.0,67,0.00,,,0.00,Weather View 32 v70,2013-03-01 02:15:00,
2013-02-28 17:20:00,36.5,26.9,29.61,NE,45,0.0,0.0,68,0.00,,,0.00,Weather View 32 v70,2013-03-01 02:20:00,
2013-02-28 17:27:00,35.8,26.2,29.61,NE,45,0.0,0.0,68,0.00,,,0.00,Weather View 32 v70,2013-03-01 02:27:00,
2013-02-28 17:35:00,35.6,26.4,29.61,NE,45,0.0,0.0,69,0.00,,,0.00,Weather View 32 v70,2013-03-01 02:35:00,
2013-02-28 17:40:00,35.6,26.4,29.61,NE,45,0.0,0.0,69,0.00,,,0.00,Weather View 32 v70,2013-03-01 02:40:00,
2013-02-28 17:45:00,35.4,26.6,29.61,NE,45,0.0,0.0,70,0.00,,,0.00,Weather View 32 v70,2013-03-01 02:45:00,
2013-02-28 17:55:00,35.1,26.6,29.61,NE,45,0.0,0.0,71,0.00,,,0.00,Weather View 32 v70,2013-03-01 02:55:00,
2013-02-28 18:00:00,35.1,26.6,29.61,NE,45,0.0,0.0,71,0.00,,,0.00,Weather View 32 v70,2013-03-01 03:00:00,
2013-02-28 18:10:00,34.9,26.8,29.61,NE,45,0.0,0.0,72,0.00,,,0.00,Weather View 32 v70,2013-03-01 03:10:00,
2013-02-28 18:15:00,34.7,26.6,29.61,NE,45,0.0,0.0,72,0.00,,,0.00,Weather View 32 v70,2013-03-01 03:15:00,
2013-02-28 18:25:00,34.2,26.4,29.61,NE,45,0.0,0.0,73,0.00,,,0.00,Weather View 32 v70,2013-03-01 03:25:00,
2013-02-28 18:35:00,33.8,26.4,29.61,NE,45,0.0,0.0,74,0.00,,,0.00,Weather View 32 v70,2013-03-01 03:35:00,
2013-02-28 18:40:00,33.4,26.4,29.61,NE,45,0.0,0.0,75,0.00,,,0.00,Weather View 32 v70,2013-03-01 03:40:00,
2013-02-28 18:50:00,33.3,26.5,29.60,NE,45,0.0,0.0,76,0.00,,,0.00,Weather View 32 v70,2013-03-01 03:50:00,
2013-02-28 18:55:00,32.9,26.2,29.60,NE,45,0.0,0.0,76,0.00,,,0.00,Weather View 32 v70,2013-03-01 03:55:00,
2013-02-28 19:00:00,32.7,26.0,29.60,NE,45,0.0,0.0,76,0.00,,,0.00,Weather View 32 v70,2013-03-01 04:00:00,
2013-02-28 19:10:00,32.7,26.3,29.59,NE,45,0.0,0.0,77,0.00,,,0.00,Weather View 32 v70,2013-03-01 04:10:00,
2013-02-28 19:20:00,32.4,26.3,29.59,NE,45,0.0,0.0,78,0.00,,,0.00,Weather View 32 v70,2013-03-01 04:20:00,
2013-02-28 19:25:00,32.2,26.1,29.59,NE,45,0.0,0.0,78,0.00,,,0.00,Weather View 32 v70,2013-03-01 04:25:00,
2013-02-28 19:35:00,32.0,26.2,29.59,NE,45,0.0,0.0,79,0.00,,,0.00,Weather View 32 v70,2013-03-01 04:35:00,
2013-02-28 19:40:00,32.2,26.4,29.59,NE,45,0.0,0.0,79,0.00,,,0.00,Weather View 32 v70,2013-03-01 04:40:00,
2013-02-28 19:50:00,31.8,26.0,29.59,NE,45,0.0,0.0,79,0.00,,,0.00,Weather View 32 v70,2013-03-01 04:50:00,
2013-02-28 19:55:00,31.8,26.0,29.59,NE,45,0.0,0.0,79,0.00,,,0.00,Weather View 32 v70,2013-03-01 04:55:00,
2013-02-28 20:00:00,31.8,26.4,29.59,NE,45,0.0,0.0,80,0.00,,,0.00,Weather View 32 v70,2013-03-01 05:00:00,
2013-02-28 20:05:00,31.8,26.4,29.60,NE,45,0.0,0.0,80,0.00,,,0.00,Weather View 32 v70,2013-03-01 05:05:00,
2013-02-28 20:10:00,31.8,26.4,29.60,NE,45,0.0,0.0,80,0.00,,,0.00,Weather View 32 v70,2013-03-01 05:10:00,
2013-02-28 20:15:00,31.8,26.4,29.60,NE,45,0.0,0.0,80,0.00,,,0.00,Weather View 32 v70,2013-03-01 05:15:00,
2013-02-28 20:20:00,31.5,26.0,29.60,NE,45,0.0,0.0,80,0.00,,,0.00,Weather View 32 v70,2013-03-01 05:20:00,
2013-02-28 20:29:00,31.3,25.8,29.60,NE,45,0.0,0.0,80,0.00,,,0.00,Weather View 32 v70,2013-03-01 05:29:00,
2013-02-28 20:35:00,31.1,26.0,29.60,NE,45,0.0,0.0,81,0.00,,,0.00,Weather View 32 v70,2013-03-01 05:35:00,
2013-02-28 20:45:00,30.7,25.6,29.60,NE,45,0.0,0.0,81,0.00,,,0.00,Weather View 32 v70,2013-03-01 05:45:00,
2013-02-28 20:50:00,30.4,25.2,29.60,NE,45,0.0,0.0,81,0.00,,,0.00,Weather View 32 v70,2013-03-01 05:50:00,
2013-02-28 21:00:00,30.4,25.5,29.60,NE,45,0.0,0.0,82,0.00,,,0.00,Weather View 32 v70,2013-03-01 06:00:00,
2013-02-28 21:10:00,30.4,25.5,29.60,NE,45,0.0,0.0,82,0.00,,,0.00,Weather View 32 v70,2013-03-01 06:10:00,
2013-02-28 21:15:00,30.0,25.5,29.60,NE,45,0.0,0.0,83,0.00,,,0.00,Weather View 32 v70,2013-03-01 06:15:00,
2013-02-28 21:20:00,30.0,25.5,29.60,NE,45,0.0,0.0,83,0.00,,,0.00,Weather View 32 v70,2013-03-01 06:20:00,
2013-02-28 21:30:00,30.0,25.5,29.61,NE,45,0.0,0.0,83,0.00,,,0.00,Weather View 32 v70,2013-03-01 06:30:00,
2013-02-28 21:35:00,29.7,25.1,29.61,NE,45,0.0,0.0,83,0.00,,,0.00,Weather View 32 v70,2013-03-01 06:35:00,
2013-02-28 21:40:00,29.7,25.1,29.61,NE,45,0.0,0.0,83,0.00,,,0.00,Weather View 32 v70,2013-03-01 06:40:00,
2013-02-28 21:50:00,29.1,24.6,29.62,NE,45,0.0,0.0,83,0.00,,,0.00,Weather View 32 v70,2013-03-01 06:50:00,
2013-02-28 21:55:00,28.9,24.4,29.62,NE,45,0.0,0.0,83,0.00,,,0.00,Weather View 32 v70,2013-03-01 06:55:00,
2013-02-28 22:05:00,28.9,24.7,29.62,NE,45,0.0,0.0,84,0.00,,,0.00,Weather View 32 v70,2013-03-01 07:05:00,
2013-02-28 22:15:00,28.6,24.4,29.62,NE,45,0.0,0.0,84,0.00,,,0.00,Weather View 32 v70,2013-03-01 07:15:00,
2013-02-28 22:20:00,28.4,24.2,29.62,NE,45,0.0,0.0,84,0.00,,,0.00,Weather View 32 v70,2013-03-01 07:20:00,
2013-02-28 22:30:00,27.9,23.7,29.62,NE,45,0.0,0.0,84,0.00,,,0.00,Weather View 32 v70,2013-03-01 07:30:00,
2013-02-28 22:40:00,27.5,23.6,29.62,NE,45,0.0,0.0,85,0.00,,,0.00,Weather View 32 v70,2013-03-01 07:40:00,
2013-02-28 22:45:00,27.0,22.8,29.63,NE,45,0.0,0.0,84,0.00,,,0.00,Weather View 32 v70,2013-03-01 07:45:00,
2013-02-28 22:50:00,26.8,22.6,29.63,NE,45,0.0,0.0,84,0.00,,,0.00,Weather View 32 v70,2013-03-01 07:50:00,
2013-02-28 22:55:00,26.8,22.9,29.63,NE,45,0.0,0.0,85,0.00,,,0.00,Weather View 32 v70,2013-03-01 07:55:00,
2013-02-28 23:05:00,26.4,22.5,29.63,NE,45,0.0,0.0,85,0.00,,,0.00,Weather View 32 v70,2013-03-01 08:05:00,
2013-02-28 23:10:00,26.4,22.5,29.63,NE,45,0.0,0.0,85,0.00,,,0.00,Weather View 32 v70,2013-03-01 08:10:00,
2013-02-28 23:15:00,26.4,22.8,29.63,NE,45,0.0,0.0,86,0.00,,,0.00,Weather View 32 v70,2013-03-01 08:15:00,
2013-02-28 23:25:00,25.7,21.8,29.63,NE,45,0.0,0.0,85,0.00,,,0.00,Weather View 32 v70,2013-03-01 08:25:00,
2013-02-28 23:31:00,25.3,21.5,29.63,NE,45,0.0,0.0,85,0.00,,,0.00,Weather View 32 v70,2013-03-01 08:31:00,
2013-02-28 23:40:00,25.3,21.7,29.63,NE,45,0.0,0.0,86,0.00,,,0.00,Weather View 32 v70,2013-03-01 08:40:00,
2013-02-28 23:45:00,25.3,21.7,29.63,NE,45,0.0,0.0,86,0.00,,,0.00,Weather View 32 v70,2013-03-01 08:45:00,
2013-02-28 23:50:00,25.5,22.2,29.63,NNE,22,1.0,1.0,87,0.00,,,0.00,Weather View 32 v70,2013-03-01 08:50:00,